Вернуться в каталог

THORAD DELTA 1 DEB

АктивенSSO
NORAD 42615·DEBRIS·🇺🇸 United States

Запущен Nov 15, 1974 с Vandenberg Space Force Base

Loading…

Ближайшие Пролёты (ближайшие 24 часа)

TLE

УстаревающийSource: Space-Track

Эпоха: Sep 10, 2026, 05:04 UTC

1 42615U 74089GG  26253.21123003  .00000052  00000-0  54943-3 0  9991
2 42615 101.7964 243.2691 0075197 133.3899 293.4581 12.60796754588796

Отслеживайте THORAD DELTA 1 DEB в реальном времени с AllMySat

Download on the App Store